NORTHEAST SUFFOLK  -  Rip Current Statement Rip Current Statement        NORTHERN NASSAU  -  Rip Current Statement Rip Current Statement        NORTHERN QUEENS  -  Rip Current Statement Rip Current Statement     Air Quality Alert Air Quality Alert        NORTHWEST SUFFOLK  -  Rip Current Statement Rip Current Statement        SOUTHEAST SUFFOLK  -  Rip Current Statement Rip Current Statement        SOUTHERN NASSAU  -  Rip Current Statement Rip Current Statement        SOUTHERN QUEENS  -  Rip Current Statement Rip Current Statement     Air Quality Alert Air Quality Alert        SOUTHWEST SUFFOLK  -  Rip Current Statement Rip Current Statement      

Active alerts

Northern Queens
  Details for Northern Queens Rip Current Statement  +1 additional alert
Southern Queens
  Details for Southern Queens Rip Current Statement  +1 additional alert
Northern Nassau
  Details for Northern Nassau Rip Current Statement
Southern Nassau
  Details for Southern Nassau Rip Current Statement
Northwest Suffolk
  Details for Northwest Suffolk Rip Current Statement
Southwest Suffolk
  Details for Southwest Suffolk Rip Current Statement
Northeast Suffolk
  Details for Northeast Suffolk Rip Current Statement
Southeast Suffolk
  Details for Southeast Suffolk Rip Current Statement


WXM80 ListenWXM80 Stop

You find our weather info also at:

UK Metoffice

WeatherCloud

Weather Underground

Northeastern Weather Network

AWEKAS

Citizen Weather Observer Program (CWOP)

HAMweather, WeatherForYou, PWS Weather


Weather Underground History page Text

Daily Summary for January 3, 2016 Units:  English    Metric   Both
« Previous Day
Next Day »
Daily Weekly Monthly Yearly Custom
  High: Low: Average:
Temperature: 46.6 °F 30.7 °F 38.8 °F
Dew Point: 30.2 °F 23.7 °F 27.7 °F
Humidity: 79 % 49 % 65 %
Wind Speed: 14.3 mph 0.0 mph 4.3 mph
Wind Gust: 21.0 mph - -
Wind:- - WSW
Pressure: 29.93 in 29.76 in -
Precipitation: 0.00 in    
Historical Graphs
 
 
Tabular Data for January 3, 2016
Time Temperature Dew Point Pressure Wind Wind Speed Wind Gust Humidity Rainfall Rate (Hourly)
00:00 31.4 °F 23.7 °F 29.93 in SW 1.6 mph 3.5 mph 73 % 0.00 in
00:05 31.4 °F 23.7 °F 29.93 in South 0.5 mph 3.0 mph 73 % 0.00 in
00:10 31.5 °F 23.8 °F 29.93 in SSW 2.5 mph 4.6 mph 73 % 0.00 in
00:15 31.5 °F 23.8 °F 29.92 in SW 1.8 mph 5.0 mph 73 % 0.00 in
00:20 31.6 °F 23.9 °F 29.92 in South 1.5 mph 5.8 mph 73 % 0.00 in
00:25 31.7 °F 24.0 °F 29.92 in SSW 3.0 mph 4.0 mph 73 % 0.00 in
00:30 31.7 °F 24.0 °F 29.92 in SSW 3.1 mph 3.5 mph 73 % 0.00 in
00:36 31.8 °F 24.1 °F 29.91 in SSW 0.9 mph 2.3 mph 73 % 0.00 in
00:41 31.8 °F 24.1 °F 29.91 in South 3.0 mph 5.8 mph 73 % 0.00 in
00:46 31.8 °F 24.1 °F 29.91 in SW 1.3 mph 3.5 mph 73 % 0.00 in
00:51 31.9 °F 24.2 °F 29.91 in SW 2.1 mph 3.5 mph 73 % 0.00 in
00:56 31.9 °F 24.2 °F 29.91 in SW 1.8 mph 3.5 mph 73 % 0.00 in
01:01 31.9 °F 24.2 °F 29.91 in SSW 2.0 mph 5.0 mph 73 % 0.00 in
01:06 31.9 °F 24.2 °F 29.91 in WSW 2.8 mph 7.0 mph 73 % 0.00 in
01:11 31.9 °F 24.2 °F 29.91 in SSW 0.5 mph 3.5 mph 73 % 0.00 in
01:16 31.9 °F 24.2 °F 29.91 in Calm   1.2 mph 73 % 0.00 in
01:21 31.9 °F 24.6 °F 29.91 in SW 1.7 mph 2.3 mph 74 % 0.00 in
01:27 31.9 °F 24.6 °F 29.91 in SSW 0.9 mph 2.0 mph 74 % 0.00 in
01:32 31.8 °F 24.5 °F 29.91 in SSW 0.2 mph 2.3 mph 74 % 0.00 in
01:37 31.8 °F 24.5 °F 29.91 in SSW 0.2 mph 1.2 mph 74 % 0.00 in
01:42 31.7 °F 24.4 °F 29.91 in SSW 0.1 mph 1.2 mph 74 % 0.00 in
01:47 31.6 °F 24.3 °F 29.91 in SSW 1.0 mph 2.3 mph 74 % 0.00 in
01:52 31.5 °F 24.2 °F 29.91 in SSW 0.2 mph 1.2 mph 74 % 0.00 in
01:57 31.4 °F 24.1 °F 29.90 in SSW 0.6 mph 2.3 mph 74 % 0.00 in
02:02 31.4 °F 24.4 °F 29.90 in Calm   1.2 mph 75 % 0.00 in
02:07 31.2 °F 24.2 °F 29.90 in Calm     75 % 0.00 in
02:12 31.1 °F 24.1 °F 29.90 in South 1.3 mph 1.3 mph 75 % 0.00 in
02:18 31.0 °F 24.0 °F 29.89 in South 0.9 mph 3.5 mph 75 % 0.00 in
02:23 30.9 °F 24.2 °F 29.89 in South 0.2 mph 2.3 mph 76 % 0.00 in
02:28 30.8 °F 24.1 °F 29.89 in Calm   1.2 mph 76 % 0.00 in
02:33 30.8 °F 24.1 °F 29.89 in Calm   2.0 mph 76 % 0.00 in
02:38 30.8 °F 24.4 °F 29.89 in SW 0.4 mph 1.2 mph 77 % 0.00 in
02:43 30.7 °F 24.3 °F 29.89 in Calm     77 % 0.00 in
02:48 30.7 °F 24.3 °F 29.88 in SW 0.4 mph 1.2 mph 77 % 0.00 in
02:53 30.8 °F 24.7 °F 29.88 in SSW 0.8 mph 3.0 mph 78 % 0.00 in
02:58 30.8 °F 24.7 °F 29.88 in WSW 1.5 mph 3.5 mph 78 % 0.00 in
03:03 30.8 °F 24.7 °F 29.87 in WSW 1.5 mph 3.0 mph 78 % 0.00 in
03:09 30.8 °F 24.7 °F 29.87 in WSW 3.1 mph 6.0 mph 78 % 0.00 in
03:14 31.0 °F 24.9 °F 29.87 in WSW 3.5 mph 8.1 mph 78 % 0.00 in
03:19 31.1 °F 25.0 °F 29.87 in SSW 4.8 mph 8.1 mph 78 % 0.00 in
03:24 31.3 °F 25.2 °F 29.86 in SW 1.8 mph 3.5 mph 78 % 0.00 in
03:29 31.4 °F 25.3 °F 29.86 in SSW 1.9 mph 4.6 mph 78 % 0.00 in
03:34 31.6 °F 25.5 °F 29.86 in SW 3.7 mph 4.6 mph 78 % 0.00 in
03:39 31.7 °F 25.6 °F 29.86 in SSW 2.7 mph 6.0 mph 78 % 0.00 in
03:44 31.7 °F 25.6 °F 29.86 in SSW 2.7 mph 4.0 mph 78 % 0.00 in
03:49 31.8 °F 25.7 °F 29.85 in SW 1.6 mph 1.6 mph 78 % 0.00 in
03:55 31.8 °F 25.7 °F 29.85 in SW 2.2 mph 3.5 mph 78 % 0.00 in
04:00 31.8 °F 25.7 °F 29.85 in SSW 3.8 mph 5.8 mph 78 % 0.00 in
04:05 31.9 °F 26.1 °F 29.85 in SW 3.3 mph 5.8 mph 79 % 0.00 in
04:10 31.9 °F 26.1 °F 29.84 in SW 3.2 mph 5.8 mph 79 % 0.00 in
04:15 32.1 °F 26.3 °F 29.84 in Calm   1.2 mph 79 % 0.00 in
04:20 32.1 °F 26.3 °F 29.84 in WSW 3.9 mph 6.0 mph 79 % 0.00 in
04:25 32.3 °F 26.5 °F 29.83 in SSW 2.6 mph 5.0 mph 79 % 0.00 in
04:30 32.4 °F 26.6 °F 29.83 in SW 4.9 mph 8.0 mph 79 % 0.00 in
04:35 32.6 °F 26.8 °F 29.83 in WSW 4.3 mph 6.9 mph 79 % 0.00 in
04:40 32.8 °F 27.0 °F 29.83 in SW 3.0 mph 6.9 mph 79 % 0.00 in
04:46 33.0 °F 26.9 °F 29.83 in SSW 4.5 mph 6.9 mph 78 % 0.00 in
04:51 33.1 °F 27.0 °F 29.84 in WSW 3.7 mph 8.1 mph 78 % 0.00 in
04:56 33.2 °F 26.8 °F 29.84 in SW 3.3 mph 8.1 mph 77 % 0.00 in
05:01 33.4 °F 27.0 °F 29.84 in SSW 5.5 mph 10.4 mph 77 % 0.00 in
05:06 33.6 °F 27.2 °F 29.84 in SSW 3.4 mph 6.9 mph 77 % 0.00 in
05:11 33.7 °F 27.3 °F 29.84 in SW 2.9 mph 5.0 mph 77 % 0.00 in
05:16 33.8 °F 27.4 °F 29.83 in SW 3.6 mph 5.8 mph 77 % 0.00 in
05:21 33.8 °F 27.4 °F 29.84 in SSW 3.9 mph 4.6 mph 77 % 0.00 in
05:26 33.9 °F 27.4 °F 29.83 in SW 3.5 mph 5.8 mph 77 % 0.00 in
05:31 33.9 °F 27.4 °F 29.83 in SSW 4.3 mph 6.9 mph 77 % 0.00 in
05:37 34.0 °F 27.5 °F 29.83 in SSW 6.2 mph 6.9 mph 77 % 0.00 in
05:42 34.1 °F 27.6 °F 29.83 in WSW 4.2 mph 9.2 mph 77 % 0.00 in
05:47 34.1 °F 27.6 °F 29.83 in SW 3.3 mph 6.0 mph 77 % 0.00 in
05:52 34.2 °F 27.7 °F 29.82 in SSW 3.3 mph 4.6 mph 77 % 0.00 in
05:57 34.2 °F 27.7 °F 29.82 in SW 4.5 mph 8.1 mph 77 % 0.00 in
06:02 34.3 °F 27.8 °F 29.82 in SW 5.6 mph 8.1 mph 77 % 0.00 in
06:07 34.3 °F 27.8 °F 29.82 in SSW 3.9 mph 6.9 mph 77 % 0.00 in
06:12 34.4 °F 27.9 °F 29.83 in SSE 4.6 mph 6.9 mph 77 % 0.00 in
06:17 34.5 °F 27.7 °F 29.83 in SSW 5.3 mph 6.9 mph 76 % 0.00 in
06:22 34.6 °F 27.8 °F 29.82 in SW 4.7 mph 7.0 mph 76 % 0.00 in
06:28 34.7 °F 27.9 °F 29.82 in SSW 5.5 mph 7.0 mph 76 % 0.00 in
06:33 34.7 °F 27.9 °F 29.82 in South 3.7 mph 6.9 mph 76 % 0.00 in
06:38 34.8 °F 28.0 °F 29.82 in South 4.3 mph 9.2 mph 76 % 0.00 in
06:43 34.8 °F 28.0 °F 29.82 in SSW 5.1 mph 6.9 mph 76 % 0.00 in
06:48 34.8 °F 28.0 °F 29.82 in SSW 4.9 mph 10.0 mph 76 % 0.00 in
06:53 34.9 °F 28.1 °F 29.83 in SSW 3.7 mph 6.9 mph 76 % 0.00 in
06:58 35.0 °F 28.2 °F 29.82 in SSW 5.1 mph 6.9 mph 76 % 0.00 in
07:03 35.0 °F 28.2 °F 29.82 in SW 5.7 mph 9.2 mph 76 % 0.00 in
07:08 35.2 °F 28.1 °F 29.82 in SSW 4.6 mph 8.1 mph 75 % 0.00 in
07:13 35.3 °F 28.2 °F 29.83 in WSW 4.8 mph 8.1 mph 75 % 0.00 in
07:19 35.4 °F 27.9 °F 29.83 in SW 4.1 mph 8.0 mph 74 % 0.00 in
07:24 35.6 °F 28.1 °F 29.83 in South 5.2 mph 8.1 mph 74 % 0.00 in
07:29 35.7 °F 28.2 °F 29.83 in South 4.2 mph 9.2 mph 74 % 0.00 in
07:34 35.9 °F 28.1 °F 29.82 in SSW 7.0 mph 11.5 mph 73 % 0.00 in
07:39 36.1 °F 27.9 °F 29.83 in SW 7.1 mph 11.5 mph 72 % 0.00 in
07:44 36.4 °F 28.2 °F 29.83 in South 5.7 mph 9.2 mph 72 % 0.00 in
07:49 36.6 °F 28.1 °F 29.83 in SSW 4.3 mph 10.4 mph 71 % 0.00 in
07:54 36.9 °F 28.4 °F 29.83 in WSW 3.9 mph 10.4 mph 71 % 0.00 in
07:59 37.1 °F 28.2 °F 29.83 in SW 3.4 mph 8.1 mph 70 % 0.00 in
08:04 37.2 °F 28.3 °F 29.83 in WSW 4.9 mph 8.1 mph 70 % 0.00 in
08:10 37.4 °F 28.2 °F 29.83 in SW 3.4 mph 11.5 mph 69 % 0.00 in
08:15 37.6 °F 28.3 °F 29.83 in WSW 5.7 mph 10.4 mph 69 % 0.00 in
08:20 37.8 °F 28.5 °F 29.83 in WSW 6.1 mph 12.7 mph 69 % 0.00 in
08:25 38.0 °F 28.4 °F 29.83 in SSW 5.5 mph 9.2 mph 68 % 0.00 in
08:30 38.2 °F 28.6 °F 29.83 in SW 6.4 mph 8.1 mph 68 % 0.00 in
08:35 38.4 °F 28.4 °F 29.83 in South 3.2 mph 8.1 mph 67 % 0.00 in
08:40 38.7 °F 28.7 °F 29.83 in West 7.3 mph 10.4 mph 67 % 0.00 in
08:45 38.9 °F 28.1 °F 29.83 in WSW 4.7 mph 11.5 mph 65 % 0.00 in
08:50 39.2 °F 28.4 °F 29.83 in WSW 6.8 mph 9.0 mph 65 % 0.00 in
08:55 39.5 °F 28.3 °F 29.83 in WSW 7.1 mph 13.0 mph 64 % 0.00 in
09:01 39.9 °F 28.3 °F 29.83 in SW 7.4 mph 12.0 mph 63 % 0.00 in
09:06 40.2 °F 27.8 °F 29.83 in WSW 6.2 mph 11.5 mph 61 % 0.00 in
09:11 40.6 °F 27.8 °F 29.82 in WSW 6.2 mph 13.8 mph 60 % 0.00 in
09:16 41.0 °F 28.2 °F 29.82 in SW 7.5 mph 11.5 mph 60 % 0.00 in
09:21 41.3 °F 28.0 °F 29.82 in NW 1.4 mph 5.8 mph 59 % 0.00 in
09:26 41.6 °F 28.3 °F 29.82 in SW 4.7 mph 9.0 mph 59 % 0.00 in
09:31 42.0 °F 28.3 °F 29.83 in West 6.6 mph 14.0 mph 58 % 0.00 in
09:36 42.4 °F 28.2 °F 29.83 in SSW 6.2 mph 10.4 mph 57 % 0.00 in
09:41 42.9 °F 28.3 °F 29.83 in WSW 8.6 mph 21.0 mph 56 % 0.00 in
09:46 43.4 °F 27.8 °F 29.82 in South 8.1 mph 17.3 mph 54 % 0.00 in
09:52 43.8 °F 28.2 °F 29.82 in West 9.6 mph 11.5 mph 54 % 0.00 in
09:57 44.1 °F 28.0 °F 29.82 in SW 4.3 mph 9.0 mph 53 % 0.00 in
10:02 44.4 °F 27.9 °F 29.83 in West 8.3 mph 17.3 mph 52 % 0.00 in
10:07 44.6 °F 28.0 °F 29.82 in WSW 7.8 mph 12.7 mph 52 % 0.00 in
10:12 44.8 °F 28.2 °F 29.82 in SW 7.7 mph 13.8 mph 52 % 0.00 in
10:17 44.9 °F 28.3 °F 29.82 in West 14.3 mph 17.3 mph 52 % 0.00 in
10:22 45.1 °F 28.0 °F 29.81 in West 8.9 mph 13.0 mph 51 % 0.00 in
10:27 45.3 °F 28.2 °F 29.81 in SW 6.6 mph 11.0 mph 51 % 0.00 in
10:32 45.4 °F 28.3 °F 29.81 in WSW 7.2 mph 11.5 mph 51 % 0.00 in
10:37 45.6 °F 28.0 °F 29.81 in SW 7.7 mph 13.8 mph 50 % 0.00 in
10:43 45.6 °F 28.5 °F 29.81 in WNW 6.2 mph 11.5 mph 51 % 0.00 in
10:48 45.7 °F 29.1 °F 29.81 in WSW 7.9 mph 13.0 mph 52 % 0.00 in
10:53 45.7 °F 28.6 °F 29.81 in NW 7.7 mph 16.1 mph 51 % 0.00 in
10:58 45.6 °F 28.5 °F 29.81 in WNW 8.5 mph 13.8 mph 51 % 0.00 in
11:03 45.5 °F 28.4 °F 29.80 in WSW 9.0 mph 17.3 mph 51 % 0.00 in
11:08 45.5 °F 28.4 °F 29.80 in WNW 3.8 mph 8.0 mph 51 % 0.00 in
11:13 45.5 °F 28.9 °F 29.80 in NW 2.7 mph 11.5 mph 52 % 0.00 in
11:18 45.5 °F 28.9 °F 29.79 in WSW 5.3 mph 6.9 mph 52 % 0.00 in
11:23 45.5 °F 28.4 °F 29.79 in NNW 7.6 mph 11.5 mph 51 % 0.00 in
11:28 45.4 °F 28.3 °F 29.79 in West 7.3 mph 11.5 mph 51 % 0.00 in
11:34 45.3 °F 28.2 °F 29.78 in SW 6.0 mph 16.1 mph 51 % 0.00 in
11:39 45.3 °F 28.7 °F 29.78 in WSW 5.8 mph 9.2 mph 52 % 0.00 in
11:44 45.3 °F 28.2 °F 29.78 in West 7.7 mph 11.5 mph 51 % 0.00 in
11:49 45.3 °F 28.2 °F 29.78 in WNW 10.2 mph 17.3 mph 51 % 0.00 in
11:54 45.3 °F 28.2 °F 29.78 in WSW 9.0 mph 17.3 mph 51 % 0.00 in
11:59 45.3 °F 28.2 °F 29.78 in WNW 6.9 mph 11.5 mph 51 % 0.00 in
12:04 45.3 °F 27.7 °F 29.78 in NW 5.7 mph 8.1 mph 50 % 0.00 in
12:09 45.4 °F 28.3 °F 29.78 in West 7.9 mph 11.5 mph 51 % 0.00 in
12:14 45.5 °F 28.4 °F 29.77 in WSW 5.3 mph 8.1 mph 51 % 0.00 in
12:19 45.6 °F 28.0 °F 29.77 in SW 10.4 mph 16.1 mph 50 % 0.00 in
12:25 45.7 °F 28.1 °F 29.77 in SW 3.1 mph 8.1 mph 50 % 0.00 in
12:30 46.0 °F 28.9 °F 29.76 in SW 5.2 mph 9.2 mph 51 % 0.00 in
12:35 46.3 °F 28.2 °F 29.76 in WSW 6.4 mph 10.4 mph 49 % 0.00 in
12:40 46.4 °F 28.3 °F 29.76 in West 3.5 mph 7.0 mph 49 % 0.00 in
12:45 46.6 °F 29.4 °F 29.76 in NNW 2.4 mph 6.0 mph 51 % 0.00 in
12:50 46.5 °F 29.8 °F 29.76 in WSW 4.2 mph 8.1 mph 52 % 0.00 in
12:55 46.5 °F 28.8 °F 29.76 in West 5.0 mph 10.4 mph 50 % 0.00 in
13:00 46.5 °F 29.8 °F 29.76 in NW 4.9 mph 8.1 mph 52 % 0.00 in
13:05 46.4 °F 29.2 °F 29.76 in West 7.7 mph 13.0 mph 51 % 0.00 in
13:10 46.3 °F 29.1 °F 29.76 in WNW 5.9 mph 10.4 mph 51 % 0.00 in
13:16 46.2 °F 28.6 °F 29.76 in SW 6.5 mph 13.0 mph 50 % 0.00 in
13:21 46.2 °F 28.6 °F 29.76 in WSW 2.0 mph 9.2 mph 50 % 0.00 in
13:26 46.2 °F 29.1 °F 29.76 in WNW 5.7 mph 10.0 mph 51 % 0.00 in
13:31 46.3 °F 30.1 °F 29.76 in NW 3.8 mph 8.0 mph 53 % 0.00 in
13:36 46.2 °F 29.5 °F 29.76 in West 5.5 mph 11.5 mph 52 % 0.00 in
13:41 46.1 °F 29.0 °F 29.77 in NW 4.6 mph 10.4 mph 51 % 0.00 in
13:46 46.0 °F 29.3 °F 29.77 in WNW 5.8 mph 10.4 mph 52 % 0.00 in
13:51 46.0 °F 29.3 °F 29.77 in WNW 6.2 mph 11.5 mph 52 % 0.00 in
13:56 45.9 °F 29.2 °F 29.77 in NW 6.1 mph 10.0 mph 52 % 0.00 in
14:01 45.8 °F 29.2 °F 29.77 in NW 7.4 mph 7.4 mph 52 % 0.00 in
14:07 45.7 °F 29.1 °F 29.77 in West 5.6 mph 10.4 mph 52 % 0.00 in
14:12 45.6 °F 29.4 °F 29.77 in NNW 1.7 mph 5.8 mph 53 % 0.00 in
14:17 45.4 °F 29.3 °F 29.77 in NW 4.8 mph 12.7 mph 53 % 0.00 in
14:22 45.2 °F 29.5 °F 29.78 in NW 4.8 mph 9.0 mph 54 % 0.00 in
14:27 44.9 °F 29.2 °F 29.77 in West 4.0 mph 6.0 mph 54 % 0.00 in
14:32 44.6 °F 29.0 °F 29.78 in WNW 6.1 mph 10.4 mph 54 % 0.00 in
14:37 44.3 °F 29.1 °F 29.78 in West 7.1 mph 12.7 mph 55 % 0.00 in
14:42 44.2 °F 29.0 °F 29.78 in WNW 5.7 mph 12.0 mph 55 % 0.00 in
14:47 44.0 °F 30.2 °F 29.78 in WNW 4.5 mph 11.0 mph 58 % 0.00 in
14:52 43.8 °F 29.5 °F 29.79 in WNW 3.3 mph 9.2 mph 57 % 0.00 in
14:58 43.5 °F 29.3 °F 29.79 in NW 7.4 mph 12.7 mph 57 % 0.00 in
15:03 43.3 °F 29.5 °F 29.79 in NNW 4.5 mph 9.2 mph 58 % 0.00 in
15:08 43.0 °F 29.2 °F 29.78 in NW 2.6 mph 4.6 mph 58 % 0.00 in
15:13 42.9 °F 28.7 °F 29.78 in WNW 3.3 mph 6.9 mph 57 % 0.00 in
15:18 42.7 °F 28.9 °F 29.78 in West 4.3 mph 10.4 mph 58 % 0.00 in
15:23 42.5 °F 28.8 °F 29.78 in WNW 8.2 mph 13.0 mph 58 % 0.00 in
15:28 42.4 °F 28.7 °F 29.78 in NW 5.6 mph 10.4 mph 58 % 0.00 in
15:33 42.4 °F 29.1 °F 29.79 in WNW 5.9 mph 8.1 mph 59 % 0.00 in
15:38 42.3 °F 29.0 °F 29.79 in West 6.8 mph 15.0 mph 59 % 0.00 in
15:43 42.3 °F 29.0 °F 29.79 in West 7.8 mph 11.5 mph 59 % 0.00 in
15:49 42.2 °F 28.0 °F 29.79 in NNW 5.5 mph 13.8 mph 57 % 0.00 in
15:54 42.2 °F 28.0 °F 29.79 in WNW 5.2 mph 9.2 mph 57 % 0.00 in
15:59 42.1 °F 27.5 °F 29.79 in NNW 6.6 mph 11.5 mph 56 % 0.00 in
16:04 42.0 °F 27.9 °F 29.79 in West 2.9 mph 7.0 mph 57 % 0.00 in
16:09 42.0 °F 27.4 °F 29.80 in West 6.5 mph 9.2 mph 56 % 0.00 in
16:14 41.9 °F 27.8 °F 29.80 in West 3.9 mph 8.1 mph 57 % 0.00 in
16:19 41.8 °F 27.7 °F 29.80 in WNW 5.9 mph 9.2 mph 57 % 0.00 in
16:24 41.7 °F 28.0 °F 29.80 in West 3.4 mph 9.2 mph 58 % 0.00 in
16:29 41.6 °F 27.9 °F 29.80 in WSW 4.0 mph 8.1 mph 58 % 0.00 in
16:34 41.5 °F 27.8 °F 29.80 in West 9.0 mph 9.2 mph 58 % 0.00 in
16:40 41.4 °F 27.7 °F 29.81 in SW 5.5 mph 11.5 mph 58 % 0.00 in
16:45 41.3 °F 27.6 °F 29.81 in West 3.8 mph 6.9 mph 58 % 0.00 in
16:50 41.2 °F 27.5 °F 29.81 in WNW 3.2 mph 10.4 mph 58 % 0.00 in
16:55 41.1 °F 27.9 °F 29.81 in West 4.0 mph 6.9 mph 59 % 0.00 in
17:00 41.0 °F 27.8 °F 29.81 in WNW 2.5 mph 6.9 mph 59 % 0.00 in
17:05 41.0 °F 27.8 °F 29.81 in West 5.5 mph 10.4 mph 59 % 0.00 in
17:10 40.9 °F 27.7 °F 29.81 in West 3.6 mph 5.0 mph 59 % 0.00 in
17:15 41.0 °F 27.8 °F 29.81 in West 3.4 mph 8.1 mph 59 % 0.00 in
17:20 41.0 °F 27.8 °F 29.81 in WNW 3.6 mph 8.1 mph 59 % 0.00 in
17:26 41.1 °F 28.3 °F 29.81 in SW 3.8 mph 6.9 mph 60 % 0.00 in
17:31 41.2 °F 28.4 °F 29.81 in WNW 3.3 mph 8.1 mph 60 % 0.00 in
17:36 41.2 °F 28.8 °F 29.81 in WSW 4.1 mph 9.2 mph 61 % 0.00 in
17:41 41.2 °F 28.8 °F 29.82 in NW 4.0 mph 7.0 mph 61 % 0.00 in
17:46 41.2 °F 28.8 °F 29.82 in NW 4.7 mph 8.1 mph 61 % 0.00 in
17:51 41.1 °F 28.7 °F 29.82 in West 4.0 mph 5.8 mph 61 % 0.00 in
17:56 40.9 °F 28.5 °F 29.82 in WSW 3.4 mph 8.1 mph 61 % 0.00 in
18:01 40.9 °F 28.5 °F 29.83 in West 4.2 mph 8.1 mph 61 % 0.00 in
18:06 40.8 °F 28.4 °F 29.83 in WSW 3.2 mph 5.8 mph 61 % 0.00 in
18:16 40.9 °F 28.5 °F 29.83 in NW 6.6 mph 10.0 mph 61 % 0.00 in
18:21 40.8 °F 28.4 °F 29.83 in West 5.0 mph 8.1 mph 61 % 0.00 in
18:27 40.9 °F 28.9 °F 29.83 in WNW 8.2 mph 12.7 mph 62 % 0.00 in
18:32 40.8 °F 28.0 °F 29.84 in WSW 4.0 mph 9.2 mph 60 % 0.00 in
18:37 40.7 °F 27.9 °F 29.84 in North 3.0 mph 9.2 mph 60 % 0.00 in
18:42 40.7 °F 27.9 °F 29.84 in West 4.8 mph 8.1 mph 60 % 0.00 in
18:47 40.6 °F 28.2 °F 29.84 in WNW 5.2 mph 9.2 mph 61 % 0.00 in
18:52 40.6 °F 28.2 °F 29.84 in West 5.5 mph 9.0 mph 61 % 0.00 in
18:53 40.5 °F 28.1 °F 29.84 in West 4.6 mph 9.2 mph 61 % 0.00 in
18:54 40.5 °F 27.7 °F 29.84 in SW 5.5 mph 8.1 mph 60 % 0.00 in
18:55 40.5 °F 27.7 °F 29.84 in NNW 8.0 mph 11.5 mph 60 % 0.00 in
18:56 40.5 °F 27.7 °F 29.84 in WSW 5.8 mph 11.5 mph 60 % 0.00 in
18:57 40.5 °F 27.7 °F 29.84 in WNW 3.9 mph 10.4 mph 60 % 0.00 in
18:58 40.5 °F 27.7 °F 29.84 in West 4.4 mph 9.2 mph 60 % 0.00 in
18:59 40.5 °F 28.1 °F 29.84 in West 2.0 mph 3.5 mph 61 % 0.00 in
19:01 40.5 °F 28.1 °F 29.84 in West 0.6 mph 6.9 mph 61 % 0.00 in
19:06 40.5 °F 27.7 °F 29.85 in West 3.5 mph 8.1 mph 60 % 0.00 in
19:11 40.4 °F 28.0 °F 29.85 in WSW 3.6 mph 6.9 mph 61 % 0.00 in
19:16 40.4 °F 27.6 °F 29.86 in West 4.3 mph 11.5 mph 60 % 0.00 in
19:21 40.4 °F 28.0 °F 29.85 in West 6.0 mph 7.0 mph 61 % 0.00 in
19:27 40.4 °F 28.0 °F 29.85 in West 6.6 mph 10.4 mph 61 % 0.00 in
19:32 40.4 °F 28.0 °F 29.86 in WSW 4.3 mph 9.2 mph 61 % 0.00 in
19:37 40.3 °F 27.9 °F 29.85 in SW 3.7 mph 6.9 mph 61 % 0.00 in
19:42 40.2 °F 28.2 °F 29.85 in WSW 3.8 mph 5.8 mph 62 % 0.00 in
19:47 40.1 °F 28.1 °F 29.85 in West 7.4 mph 11.5 mph 62 % 0.00 in
19:52 40.1 °F 28.1 °F 29.85 in West 5.9 mph 10.4 mph 62 % 0.00 in
19:57 40.0 °F 28.0 °F 29.85 in NW 3.4 mph 8.1 mph 62 % 0.00 in
20:02 39.9 °F 27.9 °F 29.85 in West 3.6 mph 7.0 mph 62 % 0.00 in
20:07 39.8 °F 28.2 °F 29.85 in SW 2.6 mph 9.2 mph 63 % 0.00 in
20:12 39.7 °F 28.1 °F 29.85 in West 4.0 mph 9.2 mph 63 % 0.00 in
20:18 39.7 °F 28.1 °F 29.85 in WNW 3.4 mph 6.9 mph 63 % 0.00 in
20:23 39.6 °F 28.4 °F 29.85 in WNW 4.6 mph 6.9 mph 64 % 0.00 in
20:28 39.6 °F 28.4 °F 29.85 in WNW 4.5 mph 8.1 mph 64 % 0.00 in
20:33 39.6 °F 28.4 °F 29.85 in NW 1.9 mph 4.6 mph 64 % 0.00 in
20:38 39.5 °F 28.7 °F 29.85 in WNW 3.4 mph 6.9 mph 65 % 0.00 in
20:43 39.4 °F 28.6 °F 29.85 in West 3.1 mph 10.4 mph 65 % 0.00 in
20:48 39.3 °F 28.9 °F 29.85 in West 3.0 mph 3.5 mph 66 % 0.00 in
20:53 39.3 °F 28.9 °F 29.85 in SW 4.6 mph 7.0 mph 66 % 0.00 in
20:58 39.2 °F 28.8 °F 29.85 in SW 6.3 mph 11.5 mph 66 % 0.00 in
21:03 39.2 °F 28.8 °F 29.85 in West 4.5 mph 6.9 mph 66 % 0.00 in
21:09 39.1 °F 28.7 °F 29.85 in West 5.5 mph 8.0 mph 66 % 0.00 in
21:14 39.0 °F 28.6 °F 29.85 in West 5.8 mph 9.2 mph 66 % 0.00 in
21:19 39.0 °F 28.6 °F 29.85 in WNW 3.7 mph 6.0 mph 66 % 0.00 in
21:24 38.9 °F 28.5 °F 29.85 in West 2.8 mph 5.0 mph 66 % 0.00 in
21:29 38.9 °F 28.9 °F 29.86 in SW 2.8 mph 5.0 mph 67 % 0.00 in
21:34 38.8 °F 28.8 °F 29.85 in SW 3.1 mph 6.0 mph 67 % 0.00 in
21:39 38.7 °F 28.7 °F 29.86 in West 3.2 mph 5.8 mph 67 % 0.00 in
21:44 38.6 °F 28.9 °F 29.86 in WSW 3.5 mph 10.4 mph 68 % 0.00 in
21:49 38.5 °F 28.9 °F 29.86 in West 2.9 mph 5.8 mph 68 % 0.00 in
21:54 38.4 °F 28.8 °F 29.85 in SW 2.8 mph 4.0 mph 68 % 0.00 in
22:00 38.4 °F 28.8 °F 29.85 in WSW 2.2 mph 5.0 mph 68 % 0.00 in
22:05 38.3 °F 28.7 °F 29.86 in NNW 3.0 mph 6.9 mph 68 % 0.00 in
22:10 38.2 °F 28.9 °F 29.86 in WNW 1.9 mph 7.0 mph 69 % 0.00 in
22:15 38.2 °F 28.9 °F 29.85 in WSW 3.8 mph 8.1 mph 69 % 0.00 in
22:20 38.1 °F 29.2 °F 29.85 in SW 2.1 mph 4.6 mph 70 % 0.00 in
22:25 38.0 °F 29.1 °F 29.86 in WSW 3.2 mph 4.6 mph 70 % 0.00 in
22:30 38.0 °F 29.1 °F 29.86 in WNW 3.6 mph 8.0 mph 70 % 0.00 in
22:35 38.0 °F 29.1 °F 29.86 in SW 5.2 mph 5.8 mph 70 % 0.00 in
22:40 38.0 °F 29.4 °F 29.86 in West 2.0 mph 10.4 mph 71 % 0.00 in
22:45 38.0 °F 29.4 °F 29.85 in SW 2.1 mph 7.0 mph 71 % 0.00 in
22:51 37.9 °F 29.0 °F 29.86 in SSW 2.9 mph 6.9 mph 70 % 0.00 in
22:56 37.9 °F 29.0 °F 29.86 in WSW 4.1 mph 7.0 mph 70 % 0.00 in
23:01 37.9 °F 29.0 °F 29.85 in WSW 5.2 mph 10.4 mph 70 % 0.00 in
23:06 37.9 °F 29.3 °F 29.85 in West 2.5 mph 6.9 mph 71 % 0.00 in
23:11 37.9 °F 29.3 °F 29.85 in West 2.1 mph 4.0 mph 71 % 0.00 in
23:16 37.8 °F 29.2 °F 29.85 in WNW 3.3 mph 5.8 mph 71 % 0.00 in
23:21 37.8 °F 29.2 °F 29.85 in WNW 4.8 mph 9.2 mph 71 % 0.00 in
23:26 37.8 °F 29.2 °F 29.85 in WSW 5.7 mph 8.0 mph 71 % 0.00 in
23:31 37.8 °F 29.2 °F 29.85 in WNW 3.2 mph 8.1 mph 71 % 0.00 in
23:37 37.7 °F 29.1 °F 29.85 in West 4.5 mph 5.0 mph 71 % 0.00 in
23:42 37.7 °F 29.1 °F 29.85 in WNW 3.2 mph 8.1 mph 71 % 0.00 in
23:47 37.7 °F 29.1 °F 29.85 in SW 3.1 mph 8.1 mph 71 % 0.00 in
23:52 37.6 °F 29.0 °F 29.85 in WNW 2.4 mph 4.6 mph 71 % 0.00 in
23:57 37.6 °F 29.4 °F 29.85 in SW 4.1 mph 8.1 mph 72 % 0.00 in
Crab Meadow Weather
Compliments of Weather Underground - 3 mb

Script developed by  Jim McMurry - jmcmurry@mwt.net Adapted for the template by  Wim van der Kuil - Leuven-Template.eu

Hurricanes: In one day a hurricane can release enough energy to supply all of the nation's electrical needs for about six months.